Simultaneous Nadir Overpasses (SNOs) Predictions

Prediction of SNOs between NPP and TERRA Satellite Orbit:

Table of predicted SNOs for the next 14.0 days since TLE Epoch: 11/1/2011
Index Date (NPP) Time (NPP) Lat,Lon (NPP) SZA (NPP ) Date (TERRA) Time (TERRA) Lat,Lon (TERRA) SZA (TERRA ) Distance(km) Time Diff (sec)
1 11/01/2011 01:55:10 81.82,-141.36 101.54 11/01/2011 01:55:09 81.82,-141.36 101.54 0.07 1
2 11/01/2011 02:44:37 -81.82, 26.04 78.49 11/01/2011 02:44:36 -81.82, 26.04 78.49 0.07 1
3 11/01/2011 03:34:03 81.82,-166.04 101.57 11/01/2011 03:34:02 81.82,-166.04 101.57 0.07 1
4 11/01/2011 04:23:30 -81.82, 1.36 78.46 11/01/2011 04:23:29 -81.82, 1.36 78.46 0.07 1
5 11/01/2011 05:12:56 81.82, 169.27 101.59 11/01/2011 05:12:55 81.82, 169.28 101.59 0.07 1
6 11/01/2011 06:02:23 -81.82, -23.33 78.43 11/01/2011 06:02:22 -81.82, -23.32 78.43 0.07 1
7 11/01/2011 06:51:49 81.82, 144.59 101.62 11/01/2011 06:51:48 81.82, 144.59 101.62 0.07 1
8 11/01/2011 07:41:16 -81.82, -48.01 78.41 11/01/2011 07:41:15 -81.82, -48.01 78.41 0.07 1
9 11/01/2011 08:30:43 81.82, 119.47 101.59 11/01/2011 08:30:42 81.82, 119.48 101.59 0.07 1
10 11/01/2011 09:20:09 -81.82, -72.70 78.38 11/01/2011 09:20:08 -81.82, -72.69 78.38 0.07 1
11 11/01/2011 10:09:36 81.82, 94.79 101.62 11/01/2011 10:09:35 81.82, 94.79 101.62 0.07 1
12 11/01/2011 10:59:02 -81.82, -97.38 78.35 11/01/2011 10:59:01 -81.82, -97.38 78.35 0.07 1
13 11/01/2011 11:48:29 81.82, 70.10 101.64 11/01/2011 11:48:28 81.82, 70.11 101.64 0.07 1
14 11/01/2011 12:37:55 -81.82,-122.06 78.33 11/01/2011 12:37:54 -81.82,-122.06 78.33 0.07 1
15 11/01/2011 13:27:22 81.82, 45.42 101.67 11/01/2011 13:27:21 81.82, 45.42 101.67 0.07 1
16 11/01/2011 14:16:48 -81.82,-146.75 78.30 11/01/2011 14:16:47 -81.82,-146.74 78.30 0.07 1
17 11/01/2011 15:06:15 81.82, 20.73 101.70 11/01/2011 15:06:14 81.82, 20.74 101.70 0.07 1
18 11/01/2011 15:55:41 -81.82,-171.43 78.27 11/01/2011 15:55:40 -81.82,-171.43 78.27 0.07 1
19 11/01/2011 16:45:08 81.82, -3.95 101.72 11/01/2011 16:45:07 81.82, -3.95 101.72 0.07 1
20 11/01/2011 17:34:34 -81.82, 163.88 78.25 11/01/2011 17:34:33
